DELTA 1 R/B(2), 2643

Orbit data source: Space-Track

DELTA 1 R/B(2), 2643 is space debris in HEO originally from a launch on Wed, 11 Jan 1967 UTC launched from the Air Force Eastern Test Range (AFETR). Debris objects in space refer to the collection of defunct objects orbiting the Earth. Examples of debris include non-operational satellites, rocket bodies, and fragments generated from explosions, collisions, or faulty payload assembly.

Loading next visibility...
DELTA 1 R/B(2) details
Identifier
2643, 1967-001D
Orbit
HEO
Last TLE update9 hours ago
Origin
Flag of USGSFC (US)
ManufacturerUTC
MissionSpacecraft
Bus & MotorFW4, Unknown motor
Mass34 kg wet, 34 kg dry
Launch date (UTC)
1967-01-11 (58 years ago)
Launch vehicleUnknown
Launch site
Air Force Eastern Test Range (AFETR)
Object type
Payload
Rocket body
Debris
Shape & HBRCyl, 1.5 m
Radar Cross Section0.687 m², Medium (>0.1 m² and < 1m²)

Expand to show TLE details & history

TLE from 9 hours ago
0 DELTA 1 R/B(2)
1 02643U 67001D   24356.87677167  .00025590  00000-0  59010-2 0  9996
2 02643  25.8055 263.0952 6008372  14.7713 357.0301  4.02118476734037
Epoch: 2024-12-21T21:02Z
Definitive object data (Epoch: 2024-12-21T21:02:33.072Z)
Latitude0.00004°
Longitude-143.44985°
Altitude365.011 km
Speed9.714 km/s
True Right ascension17h 32m 26s
True Declination0° 00' 00"
Sunlit
Object was in daylight at TLE epoch
Visualization TLE readout
Latitude-7.61723°
Longitude52.28539°
Altitude20,331.003 km
Speed2.447 km/s
Apparent Right ascension06h 52m 57s
Apparent Declination-19° 07' 18"
Sunlit
Object is in daylight
Visualization observer readout
Local Sidereal Time05:15:06
Azimuth154.027° SSE
Elevation26.707°
Doppler factor1
Orbital elements
Apogee altitude20,368.918 km
Perigee altitude291.142 km
Semi-major axis16,708.167 km
Eccentricity0.6008372
Inclination25.8055°
RAAN263.0952°
Arg. of periapsis14.7713°
True anomaly345.22379°
Mean anomaly357.0301°
Eccentric anomaly352.59074°
Mean motion1.00496 °/min
BSTAR0.005901
Orbital period358.22 mins
Loading maneuver chart data...

DELTA 1 R/B(2) Visibility forecast

Observer location: undefined°, undefined

Span
Click to sort rows by Start time (UTC) header in descending order
Start Az.
Max El. time (UTC)
Max El. Az.
Max El.
End time (UTC)
End Az.
77 mins2024-12-22 06:10:23.884Z154.039° SSE2024-12-22 06:10:23.884Z154.039° SSE24.186°2024-12-22 07:27:23.884Z151.029° SSE
174 mins2024-12-23 03:16:23.884Z257.196° W2024-12-23 03:39:23.884Z190.934° SSW38.719°2024-12-23 06:10:23.884Z152.738° SSE
|